Regional Weather Roundup
Issued by NWS

Home | Current Version | Previous Version | Graphics & Text | Print | Product List | Glossary On
Versions: 1 2 3 4 5 6 7 8 9 10 11 12 13 14 15 16 17 18 19 20 21 22 23 24 25 26 27 28 29 30 31 32 33 34 35 36 37 38 39 40 41 42 43 44 45 46 47 48 49 50
000
ASUS43 KLOT 271400
RWRIL

ILLINOIS REGIONAL WEATHER ROUNDUP
NATIONAL WEATHER SERVICE CHICAGO/ROMEOVILLE IL
900 AM CDT WED MAY 27 2015

NOTE: "FAIR" INDICATES FEW OR NO CLOUDS BELOW 12,000 FEET WITH NO
SIGNIFICANT WEATHER AND/OR OBSTRUCTIONS TO VISIBILITY.

* THESE STATIONS ARE NOT UNDER NWS QUALITY CONTROL. THEY ALSO MAY NOT
  REPORT WEATHER SUCH AS PRECIPITATION OR FOG.

ILZ001-002-007-009-015-016-024-271500-
NORTHWEST ILLINOIS

CITY           SKY/WX    TMP DP  RH WIND       PRES   REMARKS
MOLINE         PTSUNNY   67  59  75 W12       29.98R
STERLING*      MOSUNNY   68  61  77 W16       29.96S
$$

ILZ003-004-008-010-011-017-018-271500-
NORTH CENTRAL ILLINOIS

CITY           SKY/WX    TMP DP  RH WIND       PRES   REMARKS
ROCKFORD       PTSUNNY   66  59  78 W12G28    29.95S
FREEPORT*      CLOUDY    62  59  90 W13       29.98R
$$

ILZ005-006-012>014-019>023-271500-
NORTHEAST ILLINOIS

CITY           SKY/WX    TMP DP  RH WIND       PRES   REMARKS
CHICAGO-OHARE  PTSUNNY   67  59  75 SW16G23   29.94S
CHICAGO-MIDWAY PTSUNNY   71  61  70 W17G23    29.94S
AURORA         PTSUNNY   69  60  73 SW13      29.96S
WAUKEGAN       CLOUDY    66  61  84 SW15G21   29.92R
DUPAGE AIRPORT PTSUNNY   66  59  78 W15       29.94S
WHEELING       PTSUNNY   68  59  73 SW7G20    29.95R
NORTHERLY ISL    N/A     69  58  67 SW16        N/A
$$

LMZ740>746-271500-
SOUTHERN LAKE MICHIGAN

STATION/POSITION SKY/WX   TEMP    WIND        PRES    VSBY  WAVE
                          AIR SEA DIR/SP/G                  HT/PER
                          (F)     (DEG/KT/KT) (MB)    (MI)  (FT/S)
SOUTHERN BUOY              47 38  210/ 14/ 16 1013.6R         1/ 3
HARRISON CRIB              67     230/ 16/ 26   N/A
BURNHAM HARBOR             68     210/  9/ 13   N/A
CALUMET HARBOR             68     220/  7/ 13   N/A
BURNS HARBOR               68     230/ 16/ 22 1015.2R
MICHIGAN CITY              67     200/ 16/ 20   N/A
MICHIGAN CITY 6N           59 52  230/  8/ 10   N/A           1/ 3
ST. JOSEPH                 60 55  230/ 12/ 12   N/A           2/ 4
$$

ILZ025>027-034>036-040-047-049-050-058-095>099-271500-
WEST-CENTRAL ILLINOIS

CITY           SKY/WX    TMP DP  RH WIND       PRES   REMARKS
QUINCY         CLOUDY    67  59  75 W10       30.04R
MACOMB*        PTSUNNY   68  62  81 W10       30.03R
$$

ILZ028>032-037-038-041>044-048-051>054-059>061-271500-
CENTRAL ILLINOIS

CITY           SKY/WX    TMP DP  RH WIND       PRES   REMARKS
DECATUR        CLOUDY    70  64  81 SW14      30.03R
PEORIA         PTSUNNY   70  61  73 SW7       30.00R
SPRINGFIELD    CLOUDY    70  64  81 SW15G23   30.04R
TAYLORVILLE    NOT AVBL
$$

ILZ033-039-045-046-055>057-062-063-271500-
EAST-CENTRAL ILLINOIS

CITY           SKY/WX    TMP DP  RH WIND       PRES   REMARKS
CHAMPAIGN      CLOUDY    70  64  81 SW15      30.03R
MATTOON        CLOUDY    70  64  81 SW10G18   30.05R
$$

ILZ079-100>102-271500-
SOUTHWEST ILLINOIS

CITY           SKY/WX    TMP DP  RH WIND       PRES   REMARKS
BELLEVILLE     DRIZZLE   65  64  97 SW10      30.09F
CAHOKIA*       CLOUDY    67  60  78 VRB5      30.07F
SPARTA*        CLOUDY    63  61  93 W9        30.13S
$$

ILZ064>066-069>071-074>076-080>082-084>086-088>090-092>094-271500-
SOUTH-CENTRAL ILLINOIS

CITY           SKY/WX    TMP DP  RH WIND       PRES   REMARKS
CARBONDALE     TSTM      65  62  90 W7        30.13R
MARION         LGT RAIN  68  64  88 MISG      30.14R
MT. VERNON     CLOUDY    66  61  82 SW10      30.12R
SALEM*         CLOUDY    67  62  84 W15G21    30.11R
$$

ILZ067-068-072-073-078-083-087-091-271500-
SOUTHEAST ILLINOIS

CITY           SKY/WX    TMP DP  RH WIND       PRES   REMARKS
LAWRENCEVILLE  PTSUNNY   74  64  71 S9        30.08F
HARRISBURG*    PTSUNNY   71  67  85 W8        30.12R
ROBINSON*      PTSUNNY   74  63  68 SW9       30.08S
$$

ABBREVIATIONS USED IN REMARKS
   TC - TEMPERATURE IN CELSIUS
  WCI - WIND CHILL INDEX
   HX - HEAT INDEX
  VSB - VISIBILITY
$$



USA.gov is the U.S. government's official web portal to all federal, state and local government web resources and services.